GW4436 Weather Reports


time (UTC)temp
C
wind
direction
speed
KPH
gust
KPH
rain 1hr
cm
rain 24hr
cm
rain mn
cm
humidity
%
barometer
mb
20260906123037 25 238 6.4 9.7 0.00 0.00 0.00 94 1013.5
20260906121523 25 266 3.2 8.0 0.00 0.00 0.00 95 1013.6
20260906120008 25 232 0.0 3.2 0.00 0.00 0.00 95 1013.5
20260906114518 24 252 1.6 4.8 0.00 0.00 0.00 95 1013.5
20260906113020 24 309 0.0 3.2 0.00 0.00 0.00 95 1013.3
20260906111529 24 294 1.6 6.4 0.00 0.00 0.00 95 1013.1
20260906110010 24 302 1.6 6.4 0.00 0.00 0.00 95 1012.9
20260906104518 24 288 1.6 6.4 0.00 0.00 0.00 95 1012.6
20260906103023 25 216 1.6 4.8 0.00 0.00 0.00 94 1012.5
20260906101530 25 207 1.6 6.4 0.00 0.00 0.00 94 1012.3
20260906100008 25 232 1.6 9.7 0.00 0.00 0.00 94 1012.4
20260906094502 25 249 1.6 9.7 0.00 0.00 0.00 94 1012.3
20260906093004 25 260 1.6 8.0 0.00 0.00 0.00 94 1012.3
20260906091504 25 281 3.2 8.0 0.00 0.00 0.00 94 1012.3
20260906090008 25 214 3.2 6.4 0.00 0.00 0.00 94 1012.3
20260906084504 25 251 1.6 4.8 0.00 0.00 0.00 94 1012.1
20260906083005 25 291 1.6 8.0 0.00 0.00 0.00 94 1011.9
20260906081506 25 257 1.6 6.4 0.00 0.00 0.00 93 1012.0
20260906080004 25 251 0.0 4.8 0.00 0.00 0.00 93 1012.2
20260906074504 25 298 1.6 4.8 0.00 0.00 0.00 93 1012.1
20260906073003 25 253 3.2 4.8 0.00 0.00 0.00 93 1012.3
20260906071503 25 274 3.2 6.4 0.00 0.00 0.00 93 1012.2
20260906070003 25 286 4.8 9.7 0.00 0.00 0.00 93 1012.3
20260906064503 25 273 4.8 8.0 0.00 0.00 0.00 93 1012.3
20260906063006 25 284 1.6 9.7 0.00 0.00 0.00 92 1012.3
20260906061506 25 257 3.2 8.0 0.00 0.00 0.00 92 1012.6
20260906060003 25 205 4.8 6.4 0.00 0.00 0.00 92 1012.8
20260906054506 26 281 0.0 3.2 0.00 0.00 0.00 91 1012.9
20260906053008 26 216 3.2 6.4 0.00 0.00 0.00 91 1012.9
20260906051508 26 214 1.6 11.3 0.00 0.00 0.00 91 1012.9
20260906050006 26 194 4.8 8.0 0.00 0.00 0.00 91 1013.0
20260906044506 26 237 3.2 8.0 0.00 0.00 0.00 91 1012.9
20260906043008 26 221 3.2 8.0 0.00 0.00 0.00 91 1012.9
20260906041509 26 203 3.2 8.0 0.00 0.00 0.00 91 1012.7
20260906040025 26 197 4.8 6.4 0.00 0.00 0.00 91 1013.0
20260906034506 26 202 3.2 4.8 0.00 0.00 0.00 90 1013.2
20260906033009 27 184 1.6 3.2 0.00 0.00 0.00 90 1013.4
20260906031503 27 185 0.0 4.8 0.00 0.00 0.00 89 1013.6
20260906030003 27 197 1.6 4.8 0.00 0.00 0.00 89 1013.5
20260906024503 27 230 1.6 3.2 0.00 0.00 0.00 89 1013.6
20260906023007 27 207 1.6 3.2 0.00 0.00 0.00 89 1013.5
20260906021530 27 194 1.6 3.2 0.00 0.00 0.00 89 1013.4
20260906020019 28 178 1.6 3.2 0.00 0.00 0.00 87 1013.3
20260906014532 28 198 1.6 4.8 0.00 0.00 0.00 87 1013.0
20260906013004 28 218 1.6 3.2 0.00 0.00 0.00 88 1012.8
20260906011514 27 187 0.0 3.2 0.00 0.00 0.00 89 1012.5
20260906010016 27 152 1.6 4.8 0.00 0.00 0.00 91 1012.5
20260906004504 27 188 3.2 4.8 0.00 0.00 0.00 89 1012.2
20260906003016 28 143 1.6 3.2 0.00 0.00 0.00 88 1012.0
20260906001518 28 143 0.0 4.8 0.00 0.00 0.00 86 1012.0
20260906000020 29 112 0.0 3.2 0.00 0.00 0.00 84 1011.8
20260905234504 30 229 0.0 0.0 0.00 0.00 0.00 83 1011.8
20260905233005 31 229 0.0 1.6 0.00 0.00 0.00 80 1011.8
20260905231527 31 231 0.0 3.2 0.00 0.00 0.00 75 1011.8
20260905230020 32 238 0.0 3.2 0.00 0.00 0.00 76 1011.9
20260905224520 31 312 0.0 3.2 0.00 0.00 0.00 71 1012.2
20260905223026 31 312 0.0 1.6 0.00 0.00 0.00 76 1012.4
20260905221516 31 255 1.6 3.2 0.00 0.00 0.00 71 1012.4
20260905220011 32 273 1.6 4.8 0.00 0.00 0.00 69 1012.4
20260905214530 32 311 4.8 8.0 0.00 0.00 0.00 67 1012.4
20260905213023 32 273 3.2 9.7 0.00 0.03 0.00 64 1012.6
20260905211528 32 320 3.2 9.7 0.00 0.05 0.00 65 1012.7
20260905210013 32 222 4.8 11.3 0.00 0.10 0.00 67 1012.7
20260905204534 32 350 4.8 11.3 0.00 0.18 0.00 67 1012.7
20260905203028 32 245 3.2 12.9 0.00 0.23 0.00 69 1012.7
20260905201528 32 299 4.8 8.0 0.00 0.23 0.00 71 1012.7
20260905200006 31 293 8.0 14.5 0.00 0.25 0.00 68 1012.6
20260905194519 32 255 8.0 16.1 0.00 0.30 0.00 68 1012.7
20260905193022 31 331 9.7 16.1 0.00 0.38 0.00 72 1013.1
20260905191536 31 317 4.8 11.3 0.00 0.58 0.00 72 1013.3
20260905190031 31 338 9.7 12.9 0.00 0.84 0.00 72 1013.4
20260905184525 31 334 11.3 17.7 0.00 1.02 0.00 73 1013.6
20260905183031 31 282 4.8 16.1 0.00 3.07 0.00 73 1013.7
20260905181527 31 298 8.0 16.1 0.00 4.50 0.00 74 1013.9
20260905180006 30 278 4.8 12.9 0.00 5.54 0.00 76 1014.0
20260905174535 30 352 11.3 17.7 0.00 5.97 0.00 76 1014.2
20260905173035 30 326 6.4 12.9 0.00 5.97 0.00 80 1014.6
20260905171536 30 334 8.0 14.5 0.00 5.97 0.00 80 1015.0
20260905170029 29 233 4.8 16.1 0.00 5.97 0.00 81 1015.1
20260905164508 28 21 3.2 8.0 0.00 5.97 0.00 84 1015.4
20260905163037 29 330 9.7 12.9 0.00 5.97 0.00 80 1015.7
20260905161528 28 277 8.0 12.9 0.00 5.97 0.00 83 1015.8
20260905160001 28 359 6.4 12.9 0.00 5.97 0.00 87 1016.0
20260905154539 28 319 6.4 12.9 0.00 5.97 0.00 86 1016.1
20260905153014 27 300 1.6 8.0 0.00 5.97 0.00 90 1016.2
20260905151532 27 288 6.4 11.3 0.00 5.97 0.00 90 1016.4
20260905150004 26 246 4.8 8.0 0.00 5.97 0.00 93 1016.4
20260905144508 26 309 4.8 9.7 0.00 5.97 0.00 95 1016.3
20260905143013 25 330 3.2 8.0 0.00 5.97 0.00 97 1016.2
20260905141535 25 357 3.2 11.3 0.00 5.97 0.00 97 1016.3
20260905140023 25 327 4.8 8.0 0.00 5.97 0.00 98 1016.3
20260905134503 25 337 1.6 4.8 0.00 5.97 0.00 98 1016.1
20260905133010 24 263 3.2 6.4 0.00 5.97 0.00 98 1016.0
20260905131536 24 269 1.6 6.4 0.00 5.97 0.00 98 1016.1
20260905130022 23 344 1.6 4.8 0.00 5.97 0.00 98 1016.2
20260905124526 23 326 0.0 3.2 0.00 5.97 0.00 97 1016.0